#timestamp,LO_Frequency,Hit,StdDev 
1674439215.3,286047002.2,N
1674439235.1,286047001.5,N
1674439255.8,286047002.7,N
1674439275.7,286047002.4,N
1674439295.5,286047004.3,N
1674439315.3,286047001.9,N
1674439335.2,286047006.0,N
1674439355.0,286047003.9,N
1674439355.9,286047003.9,N
1674439375.8,286047002.1,N
1674439395.6,286047000.5,N
1674439415.4,286047000.5,N
1674439435.3,286047002.4,N
1674439455.1,286047001.5,N
1674439475.9,286047004.2,N
1674439495.7,286047001.7,N
1674439515.5,286047001.9,N
1674439535.4,286047000.0,N
1674439555.2,286046998.9,N
1674439575.0,286046998.2,N
1674439575.9,286046998.2,N
1674439595.8,286046996.6,N
1674439615.6,286046998.4,N
1674439635.5,286047000.0,N
1674439655.3,286046998.8,N
1674439675.1,286046999.8,N
1674439695.9,286046998.5,N
1674439715.7,286046999.0,N
1674439735.5,286047001.7,N
1674439755.4,286047002.1,N
1674439775.2,286047003.2,N
1674439795.1,286047003.9,N
1674439796.0,286047003.9,N
1674439815.8,286047004.0,N
1674439865.7,286047004.0,E
1674439875.6,286046998.4,N
1674439895.4,286046999.0,P
1674439915.3,286046997.1,P
1674439935.1,286046999.1,N
1674439955.8,286046999.4,N
1674439975.7,286046998.7,N
1674439995.5,286046994.9,Y
1674440015.4,286046999.1,P
1674440035.2,286046998.7,P
1674440055.0,286046996.5,P
1674440055.9,286046996.5,Y
1674440075.8,286047000.5,P
1674440095.6,286046999.9,N
1674440115.5,286046999.8,N
1674440135.3,286047001.5,N
1674440155.1,286047001.9,N
1674440175.9,286046999.8,N
1674440195.7,286047002.3,N
1674440215.5,286046999.7,N
1674440235.4,286046999.8,N
1674440255.2,286046998.5,N
1674440275.1,286047001.1,N
1674440276.0,286047001.1,N
1674440295.8,286047001.2,N
1674440315.6,286047000.6,N
1674440335.5,286046999.9,N
1674440355.3,286046998.5,N
1674440375.1,286046999.3,N
1674440395.9,286047000.3,N
1674440415.7,286047000.7,N
1674440435.6,286046998.5,N
1674440455.4,286047000.9,N
1674440475.2,286047000.0,N
1674440495.1,286047000.8,N
1674440496.0,286047000.8,N
1674440515.8,286047002.0,N
1674440535.7,286047001.3,N
1674440555.5,286047005.3,Y
1674440575.3,286047005.7,P
1674440595.2,286047001.8,N
1674440615.0,286047005.7,N
1674440615.9,286047005.7,N
1674440635.7,286047005.9,N
1674440655.6,286047000.2,N
1674440675.4,286046998.2,N
1674440695.3,286046996.8,N
1674440715.1,286046996.6,N
1674440735.8,286047000.4,N
1674440755.7,286047001.1,N
1674440775.5,286046999.6,N
1674440795.4,286046998.6,N
1674440815.2,286046998.4,N
1674440835.0,286046997.2,N
1674440835.9,286046997.2,N
1674440855.8,286046998.2,N
1674440875.6,286046998.3,N
1674440895.4,286046999.3,N
1674440915.3,286046998.3,N
1674440935.1,286046998.8,N
1674440955.9,286047000.4,N
1674440975.7,286046998.8,N
1674440995.5,286047000.5,N
1674441015.4,286047000.5,N
1674441035.2,286046999.3,N
1674441055.0,286047000.9,N
1674441055.9,286047000.9,N
1674441075.5,286046999.9,N
1674441095.3,286046999.9,N
1674441115.2,286046999.4,N
1674441135.9,286046997.7,N
1674441155.7,286046999.1,N
1674441175.6,286046999.0,N
1674441195.4,286046994.9,N
1674441215.2,286046997.1,N
1674441235.1,286046996.7,N
1674441236.0,286046996.7,N
1674441255.8,286046996.5,N
1674441275.7,286046995.2,Y
1674441295.5,286047000.5,P
1674441315.4,286047001.2,N
1674441335.2,286047002.6,N
1674441355.0,286046998.2,N
1674441355.9,286046998.2,N
1674441375.8,286046999.5,N
1674441395.6,286046999.8,N
1674441415.4,286046999.9,N
1674441435.3,286047002.7,N
1674441455.1,286046998.2,N
1674441475.9,286047002.7,N
1674441495.7,286047004.3,N
1674441515.5,286047003.9,N
1674441535.4,286047003.2,N
1674441555.2,286047005.2,N
1674441575.1,286047007.2,Y
1674441576.0,286047007.2,P
1674441595.8,286047003.0,N
1674441615.6,286047001.8,N
1674441635.5,286047002.5,N
1674441655.3,286047002.6,N
1674441675.1,286047002.6,N
1674441695.9,286046998.4,N
1674441715.7,286046996.9,N
1674441735.6,286046997.0,N
1674441755.4,286046998.2,N
1674441775.2,286046999.6,N
1674441795.1,286046999.3,N
1674441796.0,286046999.3,N
1674441815.8,286047000.6,N
1674441835.6,286047000.4,N
1674441855.5,286047005.6,N
1674441875.3,286047007.5,N
1674441895.2,286047004.4,N
1674441915.9,286047004.0,N
1674441935.7,286047001.9,N
1674441955.6,286046999.7,N
1674441975.4,286047000.6,N
1674441995.2,286047000.0,N
1674442015.1,286047000.5,N
1674442016.0,286047000.5,N
1674442035.8,286046998.5,N
1674442055.7,286046995.4,N
1674442075.5,286046997.1,N
1674442095.3,286047001.2,N
1674442115.2,286046999.3,N
1674442135.0,286046998.8,N
1674442135.9,286046998.8,N
1674442155.8,286046999.8,N
1674442175.6,286047002.4,N
1674442195.4,286047001.4,N
1674442215.3,286047004.0,N
1674442235.1,286047004.1,N
1674442255.8,286047001.3,N
1674442275.7,286047003.1,N
1674442295.5,286047003.8,N
1674442315.4,286047005.7,N
1674442335.2,286047003.4,N
1674442355.0,286047003.1,N
1674442355.9,286047003.1,N
1674442375.8,286047003.8,N
1674442395.6,286047003.7,N
1674442415.5,286047003.2,N
1674442435.3,286047005.7,N
1674442455.1,286047001.7,N
1674442475.9,286046998.6,N
1674442495.7,286047000.4,N
1674442515.5,286047002.8,N
1674442535.4,286047002.3,N
1674442555.2,286047004.1,N
1674442575.1,286047002.9,N
1674442576.0,286047002.9,N
1674442595.8,286047006.0,N
1674442615.6,286047005.4,N
1674442635.5,286047004.7,N
1674442655.3,286047005.4,N
1674442675.1,286047003.1,N
1674442695.9,286047001.3,N
1674442715.7,286046999.9,N
1674442735.6,286047002.2,N
1674442755.4,286046998.2,N
1674442775.2,286046998.8,N
1674442795.1,286047001.0,N
1674442796.0,286047001.0,N
